Regional Weather Roundup
Issued by NWS

Home | Current Version | Previous Version | Text Only | Print | Product List | Glossary Off
Versions: 1 2 3 4 5 6 7 8 9 10 11 12 13 14 15 16 17 18 19 20 21 22 23 24 25 26 27 28 29 30 31 32 33 34 35 36 37 38 39 40 41 42 43 44 45 46 47 48

000
ASUS45 KSLC 211510
RWRUT

UTAH REGIONAL WEATHER ROUNDUP
NATIONAL WEATHER SERVICE SALT LAKE CITY UT
900 AM MDT SUN SEP 21 2014

UTZ001>011-023>025-211600-

NORTHERN UTAH

CITY           SKY/WX    TMP DP  RH WIND       PRES   REMARKS
HILL AFB       LGT RAIN  64  39  39 E21       30.18R
LOGAN          SUNNY     57  51  80 NW9       30.17R
OGDEN          CLOUDY    69  40  34 SE7       30.14S
PROVO AIRPORT  LGT RAIN  63  57  82 NE3       30.19F
SALT LAKE CITY CLOUDY    68  53  58 SE8       30.16R
VERNAL         LGT RAIN  57  48  72 SW6       30.31R
WENDOVER       CLOUDY    64  55  72 W3        30.16S
HEBER CITY     LGT RAIN  54  46  76 CALM      30.28R
WEST JORDAN    CLOUDY    63  57  82 S6        30.19R

$$

UTZ012>022-026-027-211600-

SOUTHERN UTAH

CITY           SKY/WX    TMP DP  RH WIND       PRES   REMARKS
BRYCE CANYON   LGT RAIN  53  52  96 NE3       30.35R FOG
CEDAR CITY     LGT RAIN  57  55  93 CALM      30.24R
MILFORD        LGT RAIN  60  57  89 CALM      30.23R
MOAB/CYNLANDS  SUNNY     73  51  46 NE15      30.14S
PRICE          CLOUDY    63  53  70 NE12      30.27R
ST GEORGE      CLOUDY    70  61  73 N5        30.10R
KANAB          CLOUDY    63  57  82 N3        30.24R

$$

REGIONAL REPORTS     COLORADO/ARIZONA

CITY           SKY/WX    TMP DP  RH WIND       PRES   REMARKS
CRAIG, CO      PTSUNNY   49  39  68 CALM      30.35R
GRAND JUNCTION LGT RAIN  59  57  93 SE7       30.29R
RIFLE          CLOUDY    59  47  64 SW3       30.33R
MONTROSE       CLOUDY    60  56  86 CALM      30.38F
CORTEZ         MOSUNNY   68  56  65 E8        30.31R
PAGE, AZ       LGT RAIN  66  60  81 N3        30.15F
GRAND CANYON   MOSUNNY   64  56  75 S7        30.28S
KINGMAN        MOSUNNY   73  58  59 N7        30.07R
FLAGSTAFF      SUNNY     62  54  74 CALM      30.32S

$$

REGIONAL REPORTS    NEVADA/IDAHO/WYOMING

CITY           SKY/WX    TMP DP  RH WIND       PRES   REMARKS
LAS VEGAS, NV  MOSUNNY   77  59  53 VRB3      29.98R
ELY            CLOUDY    55  51  86 E3        30.24R
ELKO           LGT RAIN  57  50  77 CALM      30.19S
POCATELLO, ID  SUNNY     53  47  79 CALM      30.16R
BURLEY         CLOUDY    58  45  62 NE5       30.11R
EVANSTON, WY   CLOUDY    53  39  59 E14       30.35F
ROCK SPRINGS   MOSUNNY   55  37  50 NE14      30.37S

$$


USA.gov is the U.S. government's official web portal to all federal, state and local government web resources and services.